Simultaneous Nadir Overpasses (SNOs) Predictions

Prediction of SNOs between METOP-B and NOAA-19 Satellite Orbit:

Table of predicted SNOs for the next 14.0 days since TLE Epoch: 2/16/2018
Index Date (METOP-B) Time (METOP-B) Lat,Lon (METOP-B) SZA (METOP-B ) Date (NOAA-19) Time (NOAA-19) Lat,Lon (NOAA-19) SZA (NOAA-19 ) Distance(km) Time Diff (sec)
1 02/18/2018 02:22:01 -78.01, -27.28 90.33 02/18/2018 02:20:52 -78.02, -27.27 90.32 1.28 69
2 02/18/2018 03:12:41 78.02, 140.11 89.67 02/18/2018 03:11:49 78.00, 140.15 89.64 3.29 52
3 02/18/2018 04:03:23 -78.00, -52.71 90.38 02/18/2018 04:02:53 -78.01, -52.71 90.36 2.00 30
4 02/18/2018 04:54:03 78.01, 114.68 89.63 02/18/2018 04:53:50 77.98, 114.71 89.61 2.59 13
5 02/18/2018 05:44:45 -77.98, -78.14 90.42 02/18/2018 05:44:54 -78.00, -78.16 90.39 2.75 9
6 02/18/2018 06:35:25 77.99, 89.25 89.59 02/18/2018 06:35:51 77.97, 89.27 89.57 1.88 26
7 02/18/2018 07:26:07 -77.96,-103.57 90.46 02/18/2018 07:26:55 -77.99,-103.60 90.43 3.52 48
8 02/18/2018 08:16:47 77.97, 63.82 89.54 02/18/2018 08:17:52 77.96, 63.83 89.54 1.16 65
9 02/28/2018 22:31:17 -78.04, 30.54 94.27 02/28/2018 22:30:03 -78.05, 30.63 94.27 2.22 74
10 02/28/2018 23:21:57 78.05,-162.07 85.73 02/28/2018 23:21:03 78.05,-162.09 85.72 1.10 54
11 03/01/2018 00:12:39 -78.03, 5.11 94.32 03/01/2018 00:12:04 -78.04, 5.18 94.30 2.43 35
12 03/01/2018 01:03:19 78.04, 172.50 85.69 03/01/2018 01:03:04 78.03, 172.47 85.68 0.69 15
13 03/01/2018 01:54:01 -78.01, -20.32 94.36 03/01/2018 01:54:05 -78.03, -20.26 94.34 2.89 4
14 03/01/2018 02:44:41 78.02, 147.07 85.64 03/01/2018 02:45:05 78.02, 147.03 85.65 0.98 24
15 03/01/2018 03:35:23 -77.99, -45.75 94.41 03/01/2018 03:36:06 -78.02, -45.70 94.37 3.51 43
16 03/01/2018 04:26:03 78.00, 121.64 85.60 03/01/2018 04:27:06 78.01, 121.59 85.61 1.64 63




NCC Satellite Simultaneous Nadir Overpasses (SNOs) Prediction Service
